Charlevoix, MI

4:29 AM EDT on August 22, 2017 (GMT -0400)
Charlevoix Municipal

Weather History for KCVX - June, 2013

Change the Weather History Date:

Friday, June 21, 2013

  Actual Average Record
Temperature  
Mean Temperature 71 °F -  
Max Temperature 83 °F 75 °F 83 °F (2013)
Min Temperature 59 °F 64 °F 42 °F (2003)
Cooling Degree Days 6    
Growing Degree Days 21 (Base 50)    
Moisture  
Dew Point 60 °F    
Average Humidity 72    
Maximum Humidity 91    
Minimum Humidity 51    
Precipitation  
Precipitation 0.00 in - - ()
Sea Level Pressure  
Sea Level Pressure 30.08 in    
Wind  
Wind Speed 6 mph (SSE)    
Max Wind Speed 20 mph    
Max Gust Speed 29 mph    
Visibility 10 miles    
Events Rain    
Averages and records for this station are not official NWS values.
T = Trace of Precipitation, MM = Missing Value Source: NWS Daily Summary

Daily Weather History Graph

Daily Weather History Graph

Search for Another Location

Airport or City:

Trip Planner

Search our weather history database for the weather conditions in past years. The results will help you decide how hot, cold, wet, or windy it might be!

Date:

Astronomy

Jun. 21, 2013 Rise Set
Actual Time 5:53 AM EDT 9:32 PM EDT
Civil Twilight 5:15 AM EDT 10:10 PM EDT
Nautical Twilight 4:24 AM EDT 11:00 PM EDT
Astronomical Twilight 3:16 AM EDT 12:08 AM EDT
Moon 7:39 PM EDT (6/21) 4:12 AM EDT (6/21)
Length of Visible Light 16h 55m
Length of Day
15h 39m
Waxing Gibbous, 95% of the Moon is Illuminated
Jun 21
Waxing Gibbous
Jun 23
Full
Jun 30
Last Quarter
Jul 8
New
Jul 15
First Quarter

Hourly Weather History & Observations

Time (EDT) Temp. Heat Index Dew Point Humidity Pressure Visibility Wind Dir Wind Speed Gust Speed Precip Events Conditions
12:14 AM 59.4 °F - 54.7 °F 84% 30.19 in 10.0 mi SSE 4.6 mph - N/A   Clear
12:34 AM 60.6 °F - 54.5 °F 80% 30.19 in 10.0 mi SSE 4.6 mph - N/A   Clear
12:55 AM 61.3 °F - 54.5 °F 78% 30.19 in 10.0 mi Calm Calm - N/A   Clear
1:14 AM 60.1 °F - 54.7 °F 82% 30.19 in 10.0 mi Calm Calm - N/A   Clear
1:34 AM 61.0 °F - 55.2 °F 81% 30.18 in 10.0 mi SE 3.5 mph - N/A   Clear
1:55 AM 62.6 °F - 55.0 °F 76% 30.18 in 10.0 mi ESE 3.5 mph - N/A   Clear
2:14 AM 63.0 °F - 55.4 °F 76% 30.18 in 10.0 mi ESE 5.8 mph - N/A   Clear
2:34 AM 62.6 °F - 55.4 °F 77% 30.18 in 10.0 mi ESE 5.8 mph - N/A   Clear
2:55 AM 62.6 °F - 55.6 °F 78% 30.18 in 10.0 mi SE 4.6 mph - N/A   Clear
3:14 AM 63.0 °F - 55.9 °F 78% 30.17 in 10.0 mi SE 5.8 mph - N/A   Clear
3:34 AM 63.1 °F - 55.9 °F 77% 30.16 in 10.0 mi ESE 5.8 mph - N/A   Clear
3:55 AM 62.2 °F - 56.3 °F 81% 30.15 in 10.0 mi ESE 4.6 mph - N/A   Clear
4:14 AM 61.2 °F - 56.8 °F 86% 30.15 in 10.0 mi East 3.5 mph - N/A   Clear
4:34 AM 59.2 °F - 56.5 °F 91% 30.15 in 10.0 mi SE 4.6 mph - N/A   Clear
4:55 AM 61.0 °F - 57.6 °F 88% 30.15 in 10.0 mi ESE 4.6 mph - N/A   Mostly Cloudy
5:14 AM 59.9 °F - 56.8 °F 90% 30.16 in 10.0 mi Calm Calm - N/A   Overcast
5:35 AM 59.9 °F - 56.8 °F 90% 30.15 in 10.0 mi Calm Calm - N/A   Scattered Clouds
5:54 AM 59.9 °F - 57.2 °F 91% 30.15 in 10.0 mi Calm Calm - N/A   Scattered Clouds
6:14 AM 61.0 °F - 57.0 °F 87% 30.15 in 10.0 mi ESE 4.6 mph - N/A   Scattered Clouds
6:35 AM 62.1 °F - 57.2 °F 84% 30.15 in 10.0 mi ESE 4.6 mph - N/A   Mostly Cloudy
6:54 AM 62.6 °F - 57.2 °F 82% 30.16 in 10.0 mi SE 4.6 mph - N/A   Overcast
7:14 AM 62.6 °F - 57.2 °F 82% 30.15 in 10.0 mi SE 5.8 mph - N/A   Overcast
7:35 AM 63.5 °F - 56.8 °F 79% 30.15 in 10.0 mi SE 5.8 mph - N/A   Overcast
7:54 AM 63.5 °F - 56.8 °F 79% 30.15 in 10.0 mi SE 6.9 mph - N/A   Overcast
8:14 AM 64.4 °F - 57.0 °F 77% 30.14 in 10.0 mi ESE 6.9 mph - N/A   Overcast
8:35 AM 65.3 °F - 56.8 °F 74% 30.14 in 10.0 mi ESE 6.9 mph - N/A   Overcast
8:54 AM 66.4 °F - 57.4 °F 73% 30.12 in 10.0 mi ESE 8.1 mph - N/A   Overcast
9:14 AM 68.0 °F - 56.8 °F 67% 30.13 in 10.0 mi SE 8.1 mph - N/A   Overcast
9:35 AM 68.9 °F - 56.7 °F 65% 30.12 in 10.0 mi ESE 8.1 mph - N/A   Overcast
9:54 AM 69.3 °F - 57.2 °F 65% 30.12 in 10.0 mi ESE 6.9 mph - N/A   Scattered Clouds
10:14 AM 69.3 °F - 58.3 °F 68% 30.11 in 10.0 mi ESE 9.2 mph - N/A   Scattered Clouds
10:34 AM 70.2 °F - 58.8 °F 67% 30.10 in 10.0 mi ESE 8.1 mph - N/A   Scattered Clouds
10:54 AM 71.4 °F - 59.5 °F 66% 30.12 in 10.0 mi SE 6.9 mph - N/A   Mostly Cloudy
11:15 AM 72.0 °F - 60.4 °F 67% 30.12 in 10.0 mi SSE 6.9 mph - N/A   Overcast
11:34 AM 73.4 °F - 61.7 °F 67% 30.11 in 10.0 mi SE 8.1 mph - N/A   Mostly Cloudy
11:54 AM 75.2 °F - 62.8 °F 65% 30.10 in 10.0 mi SSE 6.9 mph - N/A   Scattered Clouds
12:15 PM 76.1 °F - 63.7 °F 65% 30.10 in 10.0 mi SSE 10.4 mph - N/A   Mostly Cloudy
12:34 PM 76.5 °F - 64.0 °F 65% 30.09 in 10.0 mi SSE 10.4 mph 16.1 mph N/A   Scattered Clouds
12:54 PM 77.2 °F - 64.9 °F 66% 30.07 in 10.0 mi SSE 8.1 mph - N/A   Clear
1:14 PM 78.4 °F - 65.1 °F 63% 30.07 in 10.0 mi South 12.7 mph 16.1 mph N/A   Clear
1:34 PM 78.4 °F - 64.8 °F 63% 30.06 in 10.0 mi South 11.5 mph 19.6 mph N/A   Clear
1:55 PM 79.2 °F - 65.8 °F 64% 30.05 in 10.0 mi SSE 9.2 mph - N/A   Clear
2:14 PM 78.8 °F - 65.7 °F 64% 30.04 in 10.0 mi SSE 10.4 mph 16.1 mph N/A   Clear
2:34 PM 78.8 °F - 65.3 °F 63% 30.02 in 10.0 mi SE 9.2 mph 17.3 mph N/A   Clear
2:55 PM 79.2 °F - 64.8 °F 61% 30.01 in 10.0 mi SSE 10.4 mph 18.4 mph N/A   Scattered Clouds
3:14 PM 78.8 °F - 63.7 °F 60% 30.02 in 10.0 mi SSE 6.9 mph - N/A   Mostly Cloudy
3:34 PM 78.4 °F - 63.5 °F 60% 30.01 in 10.0 mi SSE 4.6 mph - N/A   Mostly Cloudy
3:54 PM 78.3 °F - 63.9 °F 61% 30.01 in 10.0 mi SE 4.6 mph - N/A   Overcast
4:14 PM 81.1 °F 82.8 °F 64.6 °F 57% 30.00 in 10.0 mi SE 5.8 mph - N/A   Overcast
4:35 PM 83.5 °F 85.3 °F 65.3 °F 54% 29.98 in 10.0 mi SE 9.2 mph 17.3 mph N/A   Mostly Cloudy
4:54 PM 83.8 °F 85.1 °F 64.2 °F 51% 29.98 in 10.0 mi SSE 12.7 mph 24.2 mph N/A   Mostly Cloudy
5:14 PM 82.9 °F 84.0 °F 63.3 °F 51% 29.97 in 10.0 mi South 19.6 mph 27.6 mph N/A   Mostly Cloudy
5:35 PM 81.9 °F 83.1 °F 63.3 °F 53% 29.97 in 10.0 mi South 11.5 mph 28.8 mph N/A   Mostly Cloudy
5:54 PM 81.5 °F 82.9 °F 63.9 °F 55% 29.97 in 10.0 mi South 8.1 mph 20.7 mph N/A   Mostly Cloudy
6:14 PM 81.1 °F 82.8 °F 64.8 °F 57% 29.96 in 10.0 mi SSW 9.2 mph - N/A   Mostly Cloudy
6:34 PM 70.3 °F - 61.3 °F 73% 29.97 in 10.0 mi West 15.0 mph 20.7 mph N/A   Mostly Cloudy
6:54 PM 69.6 °F - 61.5 °F 75% 29.98 in 10.0 mi West 11.5 mph - N/A   Mostly Cloudy
7:14 PM 67.8 °F - 60.8 °F 78% 29.98 in 10.0 mi West 11.5 mph - N/A   Overcast
7:34 PM 66.4 °F - 60.1 °F 80% 29.97 in 10.0 mi WNW 9.2 mph - N/A   Scattered Clouds
7:54 PM 65.3 °F - 59.9 °F 83% 29.98 in 10.0 mi West 9.2 mph - N/A   Scattered Clouds
8:15 PM 66.6 °F - 61.0 °F 82% 29.98 in 10.0 mi WSW 4.6 mph - N/A   Mostly Cloudy
8:34 PM 69.3 °F - 62.1 °F 78% 29.99 in 10.0 mi SW 3.5 mph - N/A   Scattered Clouds
8:54 PM 70.2 °F - 61.7 °F 74% 29.98 in 10.0 mi SW 9.2 mph - N/A   Clear
9:15 PM 72.5 °F - 60.3 °F 65% 29.98 in 10.0 mi SW 11.5 mph 20.7 mph N/A   Clear
9:34 PM 72.7 °F - 60.4 °F 65% 29.99 in 10.0 mi SW 15.0 mph 25.3 mph N/A   Clear
9:54 PM 72.0 °F - 60.6 °F 67% 29.99 in 10.0 mi SW 12.7 mph 17.3 mph N/A   Scattered Clouds
10:15 PM 71.6 °F - 60.8 °F 69% 30.00 in 10.0 mi SW 10.4 mph - N/A   Overcast
10:34 PM 71.2 °F - 60.8 °F 69% 30.01 in 10.0 mi SSW 9.2 mph - N/A   Overcast
10:54 PM 70.3 °F - 61.0 °F 72% 30.01 in 10.0 mi SSW 8.1 mph - N/A   Overcast
11:15 PM 70.0 °F - 61.7 °F 75% 30.01 in 10.0 mi SW 6.9 mph - N/A Rain Light Rain
11:34 PM 69.6 °F - 62.1 °F 77% 30.01 in 10.0 mi WSW 8.1 mph - N/A   Overcast
11:54 PM 68.9 °F - 61.7 °F 78% 30.01 in 10.0 mi SW 11.5 mph 16.1 mph N/A   Overcast